Stations météo

réclame
Mon MeteoGroup
Boscombe Down, Grande-Bretagne (3746): Température de l'air & dewpoint: 12.02.2019 16:00:00 - 18.02.2019 16:00:00 (GMT)Boscombe Down, Grande-Bretagne (3746): Vitesse du vent: 12.02.2019 16:00:00 - 18.02.2019 16:00:00 (GMT)Boscombe Down, Grande-Bretagne (3746): Direction du vent: 12.02.2019 16:00:00 - 18.02.2019 16:00:00 (GMT)Boscombe Down, Grande-Bretagne (3746): reduced air pressure: 12.02.2019 16:00:00 - 18.02.2019 16:00:00 (GMT)Boscombe Down, Grande-Bretagne (3746): visibility: 12.02.2019 16:00:00 - 18.02.2019 16:00:00 (GMT)Boscombe Down, Grande-Bretagne (3746): Quantités de précipitations: 12.02.2019 16:00:00 - 18.02.2019 16:00:00 (GMT)
Date & Time tt [°C] td [°C] ff [km/h] ff [knt] dd ppp [hPa] vv [km] rr [mm]
18.02.2019 16:00:00 6,6 5,9 13 7 SW 1014,7 10 1,4
18.02.2019 15:00:00 6,7 5,4 21 11 SW 1014,6 10 2,6
18.02.2019 14:00:00 8,6 6,8 22 12 SSW 1014,4 10 0,0
18.02.2019 13:00:00 8,6 7,5 24 13 SSW 1014,5 10 0,2
18.02.2019 12:00:00 8,4 7,8 16 9 SSW 1015,0 10 0,0
18.02.2019 11:00:00 7,8 6,9 18 10 S 1015,2 10 0,8
18.02.2019 10:00:00 8,1 6,7 21 11 SSW 1015,1 10 0,0
18.02.2019 09:00:00 8,3 6,7 16 9 SSW 1015,1 10 0,0
18.02.2019 08:00:00 8,6 7,7 22 12 SSW 1014,8 10 0,0
18.02.2019 07:00:00 8,4 7,6 22 12 SSW 1014,3 10 0,0
18.02.2019 06:00:00 8,3 7,6 18 10 SSW 1014,5 9 0,0
18.02.2019 05:00:00 8,2 7,3 21 11 SSW 1014,4 10 0,0
18.02.2019 04:00:00 7,6 7,3 15 8 S 1015,0 9 0,0
18.02.2019 03:00:00 7,6 7,3 13 7 S 1015,1 7 0,0
18.02.2019 02:00:00 7,8 7,3 11 6 S 1015,7 8 0,0
18.02.2019 01:00:00 7,1 6,7 15 8 S 1015,8 9 0,0
18.02.2019 00:00:00 7,5 7,0 15 8 S 1015,9 9 0,0
17.02.2019 23:00:00 7,6 7,2 15 8 SSW 1015,8 9 0,0
17.02.2019 22:00:00 8,3 7,6 15 8 SSW 1015,6 11 0,0
17.02.2019 21:00:00 8,0 7,1 18 10 SSW 1015,4 10 0,0
17.02.2019 20:00:00 8,5 7,3 18 10 SSW 1015,2 12 0,0
17.02.2019 19:00:00 9,3 7,8 21 11 SSW 1015,2 11 0,0
17.02.2019 18:00:00 9,5 7,9 21 11 SSW 1014,8 10 0,0
17.02.2019 17:00:00 9,9 7,6 21 11 SSW 1014,3 15 0,0
17.02.2019 16:00:00 11,0 8,4 22 12 SSW 1014,1 14 0,0
17.02.2019 15:00:00 10,8 8,5 26 14 SSW 1014,3 15 0,0
17.02.2019 14:00:00 10,1 8,3 16 9 S 1014,1 13 0,0
17.02.2019 13:00:00 10,8 8,5 26 14 S 1014,2 16 0,0
17.02.2019 12:00:00 11,2 8,6 21 11 SSW 1014,1 15 0,0
17.02.2019 11:00:00 10,7 7,9 22 12 SSW 1014,4 19 0,0
17.02.2019 10:00:00 10,0 7,3 29 16 S 1014,1 21 0,0
17.02.2019 09:00:00 7,7 5,9 15 8 SSE 1013,9 13 0,0
17.02.2019 08:00:00 6,4 5,1 18 10 SSE 1014,0 9 0,0
17.02.2019 07:00:00 5,3 4,7 16 9 SE 1014,4 9 0,0
17.02.2019 06:00:00 5,8 4,9 16 9 SE 1014,9 6 0,0
17.02.2019 05:00:00 5,6 4,7 15 8 SE 1015,5 3,9 0,0
17.02.2019 04:00:00 6,0 5,6 15 8 SE 1016,0 5 0,0
17.02.2019 03:00:00 6,2 5,9 21 11 SE 1016,7 2,3 0,0
17.02.2019 02:00:00 7,4 7,1 21 11 SE 1017,9 2,0 0,0
17.02.2019 01:00:00 8,0 7,7 18 10 SSE 1018,7 3,6 0,0
17.02.2019 00:00:00 8,6 8,2 21 11 SSE 1019,6 7 0,0
16.02.2019 23:00:00 8,4 7,7 16 9 SSE 1020,0 12 0,0
16.02.2019 22:00:00 9,3 8,5 9 5 S 1020,7 18 0,0
16.02.2019 21:00:00 9,3 8,7 18 10 S 1020,9 13 0,0
16.02.2019 20:00:00 9,3 9,1 22 12 S 1021,2 6 0,0
16.02.2019 19:00:00 9,2 9,0 15 8 S 1021,6 3,7 0,0
16.02.2019 18:00:00 9,6 9,2 18 10 S 1021,3 5 0,0
16.02.2019 17:00:00 10,0 9,6 13 7 S 1021,2 7 0,0
16.02.2019 16:00:00 10,5 10,0 16 9 S 1021,6 5 0,0
16.02.2019 15:00:00 10,9 10,4 18 10 SSW 1022,0 5 0,0
16.02.2019 14:00:00 11,8 10,5 18 10 SSW 1022,3 14 0,0
16.02.2019 13:00:00 11,8 10,9 21 11 SSW 1022,6 21 0,0
16.02.2019 12:00:00 10,9 10,8 16 9 SSW 1023,1 8 0,0
16.02.2019 11:00:00 10,2 10,2 15 8 SSW 1023,4 4,4 0,0
16.02.2019 10:00:00 9,4 9,4 13 7 S 1023,1 0,6 0,0
16.02.2019 09:00:00 8,7 8,6 8 4 S 1023,3 0,1 0,2
16.02.2019 08:00:00 8,4 8,4 13 7 S 1022,8 0,1 0,0
16.02.2019 07:00:00 7,8 7,8 13 7 S 1022,4 0,2 0,0
16.02.2019 06:00:00 7,5 7,4 13 7 S 1022,4 0,3 0,0
16.02.2019 05:00:00 7,3 7,2 13 7 S 1022,3 1,2 0,0
16.02.2019 04:00:00 6,8 6,7 8 4 S 1022,5 2,0 0,0
16.02.2019 03:00:00 5,6 5,5 8 4 SSW 1022,7 1,5 0,0
16.02.2019 02:00:00 4,3 4,2 8 4 SE 1023,2 0,5 0,0
16.02.2019 01:00:00 3,9 3,7 8 4 SSE 1023,6 - 0,0
16.02.2019 00:00:00 4,3 3,9 8 4 SW 1024,0 1,0 0,0
15.02.2019 23:00:00 4,3 3,5 8 4 SE 1023,9 7 0,0
15.02.2019 22:00:00 4,0 3,3 11 6 SSE 1024,3 11 0,0
15.02.2019 21:00:00 4,6 2,7 8 4 S 1024,6 10 0,0
15.02.2019 20:00:00 5,3 2,5 8 4 SSE 1024,6 23 0,0
15.02.2019 19:00:00 7,6 4,4 9 5 SSE 1024,8 40 0,0
15.02.2019 18:00:00 7,2 4,3 18 10 SSE 1024,6 26 0,0
15.02.2019 17:00:00 10,5 5,5 16 9 S 1024,4 35 0,0
15.02.2019 16:00:00 12,2 5,9 21 11 S 1024,6 10 0,0
15.02.2019 15:00:00 13,2 5,8 21 11 S 1024,8 10 0,0
15.02.2019 14:00:00 12,4 7,2 15 8 SSE 1025,4 10 0,0
15.02.2019 13:00:00 11,4 6,3 15 8 SSE 1026,2 10 0,0
15.02.2019 12:00:00 10,1 6,3 11 6 SSE 1026,8 10 0,0
15.02.2019 11:00:00 7,9 6,4 11 6 SE 1027,4 9 0,0
15.02.2019 10:00:00 4,7 4,7 9 5 ESE 1027,9 1,2 0,0
15.02.2019 09:00:00 2,8 2,8 5 3 ESE 1028,0 0,2 0,0
15.02.2019 08:00:00 1,0 0,9 5 3 SE 1028,1 0,1 0,0
15.02.2019 07:00:00 1,7 1,7 9 5 E 1028,0 1,5 0,0
15.02.2019 06:00:00 1,5 1,4 11 6 E 1028,1 - 0,0
15.02.2019 05:00:00 2,1 2,0 9 5 E 1028,1 - 0,2
15.02.2019 04:00:00 1,6 1,4 9 5 SE 1028,4 1,2 0,0
15.02.2019 03:00:00 2,0 1,8 8 4 ESE 1028,6 2,3 0,0
15.02.2019 02:00:00 1,8 1,5 9 5 ESE 1028,9 3,0 0,0
15.02.2019 01:00:00 2,3 2,1 11 6 E 1029,4 1,5 0,0
15.02.2019 00:00:00 1,8 1,7 9 5 E 1029,6 0,5 0,0
14.02.2019 23:00:00 2,1 2,0 9 5 E 1029,6 0,4 0,0
14.02.2019 22:00:00 2,3 2,1 8 4 ESE 1030,0 1,9 0,0
14.02.2019 21:00:00 2,3 1,9 9 5 SE 1030,0 2,0 0,0
14.02.2019 20:00:00 2,9 2,1 8 4 ESE 1030,2 5 0,0
14.02.2019 19:00:00 3,6 1,7 11 6 ESE 1030,1 10 0,0
14.02.2019 18:00:00 6,4 3,3 11 6 SSE 1030,1 10 0,0
14.02.2019 17:00:00 8,5 2,6 18 10 SE 1029,8 20 0,0
14.02.2019 16:00:00 10,4 2,2 16 9 SE 1030,0 10 0,0
14.02.2019 15:00:00 11,2 3,7 21 11 SE 1030,2 10 0,0
14.02.2019 14:00:00 11,3 5,5 16 9 ESE 1030,7 10 0,0
14.02.2019 13:00:00 10,6 5,5 18 10 SE 1031,4 10 0,0
14.02.2019 12:00:00 8,4 5,0 16 9 SSE 1032,2 10 0,0
14.02.2019 11:00:00 7,5 7,4 21 11 SSE 1032,6 8 0,0
14.02.2019 10:00:00 4,5 4,5 9 5 SE 1032,8 0,2 0,0
14.02.2019 09:00:00 3,5 3,5 5 3 ESE 1032,8 0,1 0,0
14.02.2019 08:00:00 2,8 2,8 5 3 ESE 1032,6 0,1 0,0
14.02.2019 07:00:00 2,8 2,8 8 4 ESE 1032,3 - 0,0
14.02.2019 06:00:00 2,9 2,9 8 4 E 1032,5 0,1 0,2
14.02.2019 05:00:00 2,6 2,5 4 2 SE 1032,3 - 0,0
14.02.2019 04:00:00 3,0 3,0 4 2 ESE 1032,4 - 0,0
14.02.2019 03:00:00 2,2 2,1 8 4 SE 1032,6 - 0,0
14.02.2019 02:00:00 2,8 2,7 8 4 E 1032,7 0,1 0,0
14.02.2019 01:00:00 2,9 2,8 8 4 ESE 1033,2 - 0,0
14.02.2019 00:00:00 2,6 2,4 5 3 E 1033,0 0,1 0,0
13.02.2019 23:00:00 3,5 3,2 11 6 SE 1033,0 2,0 0,0
13.02.2019 22:00:00 4,8 4,4 15 8 SSE 1032,8 4,6 0,0
13.02.2019 21:00:00 4,6 3,9 24 13 SSE 1032,6 7 0,0
13.02.2019 20:00:00 5,5 4,6 18 10 S 1032,5 18 0,0
13.02.2019 19:00:00 6,0 5,1 21 11 SSE 1032,3 12 0,0
13.02.2019 18:00:00 6,4 4,8 18 10 S 1032,1 10 0,0
13.02.2019 17:00:00 8,2 5,6 18 10 S 1031,9 10 0,0
13.02.2019 16:00:00 9,2 5,7 16 9 SSE 1032,3 25 0,0
13.02.2019 15:00:00 10,2 5,6 15 8 S 1032,4 10 0,0
13.02.2019 14:00:00 10,9 6,4 21 11 SSW 1032,5 10 0,0
13.02.2019 13:00:00 10,3 6,8 28 15 S 1032,7 10 0,0
13.02.2019 12:00:00 9,7 7,0 21 11 SSW 1033,0 10 0,0
13.02.2019 11:00:00 8,4 7,0 21 11 S 1032,9 10 0,0
13.02.2019 10:00:00 7,7 7,1 16 9 S 1033,1 9 0,0
13.02.2019 09:00:00 6,9 6,7 13 7 S 1033,2 4,0 0,0
13.02.2019 08:00:00 6,3 6,1 18 10 S 1032,9 5 0,0
13.02.2019 07:00:00 5,9 5,2 11 6 SSE 1033,0 10 0,0
13.02.2019 06:00:00 6,3 5,8 11 6 S 1033,0 14 0,0
13.02.2019 05:00:00 7,2 6,7 11 6 S 1033,2 18 0,0
13.02.2019 04:00:00 7,4 7,0 13 7 S 1033,2 9 0,0
13.02.2019 03:00:00 7,4 7,2 11 6 S 1033,6 8 0,0
13.02.2019 02:00:00 7,6 7,5 11 6 SW 1033,7 4,1 0,2
13.02.2019 01:00:00 7,4 7,2 9 5 S 1033,8 4,4 0,0
13.02.2019 00:00:00 7,4 7,1 9 5 S 1033,9 5 0,0
12.02.2019 23:00:00 7,6 7,1 11 6 S 1034,0 7 0,0
12.02.2019 22:00:00 7,7 7,2 11 6 SSW 1034,0 10 0,0
12.02.2019 21:00:00 7,7 7,1 13 7 SSW 1033,9 9 0,0
12.02.2019 20:00:00 7,5 7,0 11 6 SSW 1033,8 11 0,0
12.02.2019 19:00:00 7,8 6,8 9 5 SSW 1034,0 10 0,0
12.02.2019 18:00:00 8,3 6,9 13 7 SSW 1033,6 10 0,0
12.02.2019 17:00:00 8,4 6,7 13 7 SSW 1033,4 10 0,0
12.02.2019 16:00:00 8,7 6,8 11 6 S 1033,3 10 0,0

tt = Température de l'air
td = dewpoint
ff = Vitesse du vent
dd = Direction du vent
ppp = reduced air pressure
vv = visibility
rr = Quantités de précipitations

stations d'obs. à proximité